Regional Weather Roundup
Issued by NWS

Home | Current Version | Previous Version | Text Only | Print | Product List | Glossary Off
Versions: 1 2 3 4 5 6 7 8 9 10 11 12 13 14 15 16 17 18 19 20 21 22 23 24 25 26 27 28 29 30 31 32 33 34 35 36 37 38 39 40 41 42 43 44 45 46 47 48 49 50

000
ASUS42 KTBW 221410
RWRFL
FLORIDA REGIONAL WEATHER ROUNDUP
NATIONAL WEATHER SERVICE TAMPA BAY RUSKIN FL
1000 AM EDT MON SEP 22 2014

NOTE: "FAIR" INDICATES FEW OR NO CLOUDS BELOW 12,000 FEET WITH NO
SIGNIFICANT WEATHER AND/OR OBSTRUCTIONS TO VISIBILITY.


FLZ001>010-012>015-112-114-115-221500-
PANHANDLE FLORIDA

CITY           SKY/WX    TMP DP  RH WIND       PRES   REMARKS
PENSACOLA      SUNNY     78  70  76 N10       30.04R
PENSACOLA NAS  MOSUNNY   80  72  76 NW8       30.03S
MILTON NAS     MOSUNNY   79  70  74 N7        30.05R
CRESTVIEW      MOSUNNY   79  70  74 NW8       30.06R
DUKE FIELD     MOSUNNY   76  73  88 NW7       30.05R
VALPARAISO     MOSUNNY   81  69  67 NW3       30.04R
TRI COUNTY     FAIR      77  71  82 MISG      30.05R
PANAMA CITY    FAIR      79  70  74 CALM      30.04R
TYNDALL AFB    SUNNY     80  72  76 N5        30.04S
APALACHICOLA   SUNNY     81  68  64 NE6       30.04R

STATION/POSITION SKY/WX   TEMP    WIND        PRES    WAVE   SWELL
                          AIR SEA DIR/SP/G            HT/PER HT/PER
                          (F)     (DEG/KT/KT) (MB)    (FT/S) (FT/S)
30.1N   87.6W              81 85  360/  8/ 10 1017.0R   1/ 5   2/ 5
29.2N   88.2W              82 84   50/ 14/ 16 1016.9R   2/ 5
28.8N   86.0W              82 84   70/  2/  4 1015.9F   2/ 6   2/ 6
PANAMA CITY BEAC           77 84   30/  5/  6 1017.2R
CAPE SAN BLAS    NOT AVBL
TOWER C                    79      30/ 10/ 11 1016.8R
28.5N   84.5W              81 84  170/  4/  4 1016.5R   2/ 6   2/ 6

$$
FLZ011-016>038-118-127-128-134-139-239-221500-
NORTH FLORIDA

CITY           SKY/WX    TMP DP  RH WIND       PRES   REMARKS
MARIANNA       SUNNY     76  70  82 SW3       30.04R
TALLAHASSEE    MOSUNNY   77  69  76 CALM      30.04R
PERRY          SUNNY     75  70  83 E3        30.05S
CROSS CITY       N/A     78  73  84 CALM      30.04R
LAKE CITY      FAIR      77  73  88 S5        30.06R
GAINESVILLE    MOSUNNY   79  73  82 CALM      30.05S
MAYPORT NAS    PTSUNNY   79  72  79 W5        30.05R
JACKSONVILLE   MOSUNNY   75  71  87 S3        30.05R
JAX NAS        MOSUNNY   78  69  73 W3        30.06R
JAX CRAIG      MOSUNNY   78  70  76 SW5       30.06R
JAX CECIL      SUNNY     73  70  88 CALM      30.06R
ST AUGUSTINE   MOSUNNY   81  73  76 S9        30.07R

STATION/POSITION SKY/WX   TEMP    WIND        PRES    WAVE   SWELL
                          AIR SEA DIR/SP/G            HT/PER HT/PER
                          (F)     (DEG/KT/KT) (MB)    (FT/S) (FT/S)
SHELL POINT                72      40/  3/  4   N/A
KEATON BEACH               77      60/  3/  5 1017.4R
CEDAR KEY                  78     100/  3/  3 1017.6R
FERNANDINA                 76 81  240/  2/  5 1017.2R
30.7N   81.3W                 83                N/A     2/ 9
MAYPORT                    77 82  280/  3/  5   N/A
31.4N   80.9W              79 83  250/ 14/ 16 1017.3R   2/ 4   2/ 9
ST AUGUSTINE               78     200/  5/  6 1018.6R

$$
FLZ040-043>046-052-053-057-058-063-144-221500-
INTERIOR CENTRAL FLORIDA

CITY           SKY/WX    TMP DP  RH WIND       PRES   REMARKS
OCALA          MOSUNNY   77  72  83 S5        30.05R
THE VILLAGES     N/A     81  75  83 CALM      29.96R
LEESBURG       PTSUNNY   80  74  81 CALM      30.06R
SANFORD        CLOUDY    80  74  81 VRB3      30.06R
ORLANDO EXEC   PTSUNNY   80  74  81 CALM      30.06R
ORLANDO INTL   PTSUNNY   78  76  93 CALM      30.06R
KISSIMMEE      CLOUDY    79  75  89 SE5       30.06R
WINTER HAVEN   PTSUNNY   80  73  79 S6        30.06R
LAKELAND       PTSUNNY   79  79 100 S5        30.05S
BARTOW         PTSUNNY   77  75  94 CALM      30.06S
OKEECHOBEE       N/A     77  77 100 MISG      30.07R

$$
FLZ041-047-054-059-064-141-147-221500-
EAST CENTRAL FLORIDA

CITY           SKY/WX    TMP DP  RH WIND       PRES   REMARKS
ORMOND BEACH   MOSUNNY   79  73  83 CALM      30.06R
DAYTONA BEACH  PTSUNNY   79  74  84 S5        30.06R
DELAND         PTSUNNY   81  73  78 S3        30.07R
JFK SPACE CTR  CLOUDY    79  74  85 VRB1      30.06R
TITUSVILLE     CLOUDY    79  75  89 CALM      30.06R
CAPE CANAVERAL CLOUDY    80  74  81 W3        30.06R
PATRICK AFB    PTSUNNY   80  74  83 W3        30.06R
MELBOURNE      CLOUDY    80  74  81 SW6       30.06R
VERO BEACH     PTSUNNY   77  73  87 S3        30.07R
FT PIERCE      CLOUDY    80  75  84 CALM      30.06R
STUART         PTSUNNY   81  73  78 CALM      30.08R

STATION/POSITION SKY/WX   TEMP    WIND        PRES    WAVE   SWELL
                          AIR SEA DIR/SP/G            HT/PER HT/PER
                          (F)     (DEG/KT/KT) (MB)    (FT/S) (FT/S)
28.5N   80.2W              80 84  270/  4/  6 1017.9R
28.9N   78.5W              82 84  350/  2/  4 1018.1R   4/ 9   5/ 9
TRIDENT PIER               79 83  260/  3/  6 1017.4R
28.4N   80.5W                 83                N/A     1/10
27.6N   80.2W                 82                N/A     2/10

$$
FLZ050-056-061-142-242-148-248-149-249-151-251-155-255-
160-260-221500-
WEST CENTRAL FLORIDA

CITY           SKY/WX    TMP DP  RH WIND       PRES   REMARKS
CRYSTAL RIVER  CLOUDY    79  72  78 SE3       30.04R
INVERNESS      FAIR      77  66  69 CALM      30.06R
BROOKSVILLE    CLOUDY    78  75  90 CALM      30.05R
ZEPHYRHILLS    PTSUNNY   77  73  88 SE5       30.05S
CLEARWATER     CLOUDY    82  75  79 SE8       30.03R
TAMPA INTL     CLOUDY    81  73  76 SE8       30.04S
TAMPA EXEC     CLOUDY    81  75  83 S3        30.04S
PLANT CITY     PTSUNNY   82 N/A N/A SE5       30.06S
MACDILL AFB    PTSUNNY   81  78  91 SE7       30.04R
ST PETERSBURG  CLOUDY    79  75  87 S7        30.02R
SARASOTA       PTSUNNY   82  77  84 SE7       30.02S
VENICE           N/A    N/A N/A N/A MISG        N/A

STATION/POSITION SKY/WX   TEMP    WIND        PRES    WAVE   SWELL
                          AIR SEA DIR/SP/G            HT/PER HT/PER
                          (F)     (DEG/KT/KT) (MB)    (FT/S) (FT/S)
CEDAR KEY                  78     100/  3/  3 1017.6R
28.5N   84.5W              81 84  170/  4/  4 1016.5R   2/ 6   2/ 6
27.3N   84.3W                 85                N/A     3/ 5
CLEARWATER BEACH NOT AVBL
MIDDLE TAMPA BAY           80     150/  5/  6 1017.2R
VENICE                     81 84  130/  7/  9 1016.7F

$$
FLZ066-069-070-075>078-162-262-165-265-221500-
SOUTHWEST FLORIDA AND KEYS

CITY           SKY/WX    TMP DP  RH WIND       PRES   REMARKS
PUNTA GORDA    PTSUNNY   81  75  82 SE6       30.06S
FT MYERS       CLOUDY    77  74  90 SE3       30.05R
SOUTHWEST INTL CLOUDY    79  61  53 SE6       30.05R
NAPLES         CLOUDY    81  75  82 SE5       30.04R
MARCO ISLAND   MOSUNNY   81  75  83 E5        30.05R
MARATHON       CLOUDY    84  72  67 NE10      30.06R
KEY WEST NAS   CLOUDY    85  76  74 E6        30.04S
KEY WEST INTL  CLOUDY    86  76  71 CALM      30.05R HX  96

STATION/POSITION SKY/WX   TEMP    WIND        PRES    WAVE   SWELL
                          AIR SEA DIR/SP/G            HT/PER HT/PER
                          (F)     (DEG/KT/KT) (MB)    (FT/S) (FT/S)
VENICE                     81 84  130/  7/  9 1016.7F
NAPLES                     80 88  130/  4/  6 1018.0F
DRY TORTUGAS               81      60/  5/  6 1016.3F
NW FL BAY                  81      50/  7/  8 1017.3R
SAND KEY                   84      50/  3/  5 1017.5R
SOMBRERO KEY               85     100/  6/  7 1018.3R
LONG KEY                   84 85  360/  5/ 12 1018.5R
MOLASSES REEF              84 86  110/  6/  7 1017.5R

$$
FLZ067-068-071>074-168-172>174-221500-
SOUTHEAST FLORIDA

CITY           SKY/WX    TMP DP  RH WIND       PRES   REMARKS
W PALM BEACH   PTSUNNY   84  73  69 CALM      30.05R
FT LAUDER-EXEC MOSUNNY   83  78  85 E7        30.05S
FT LAUDERDALE  PTSUNNY   84  76  76 E6        30.05S
POMPANO BEACH  PTSUNNY   86  73  65 E7        30.06R
PEMBROKE PINES MOSUNNY   85  76  74 CALM      30.07R
OPA LOCKA      MOSUNNY   86  75  69 VRB3      30.06S HX  95
MIAMI          PTSUNNY   85  76  74 E6        30.06R
WEST KENDALL   LGT RAIN  85  76  74 E5        30.06R
HOMESTEAD      PTSUNNY   84  76  77 E5        30.06S

STATION/POSITION SKY/WX   TEMP    WIND        PRES    WAVE   SWELL
                          AIR SEA DIR/SP/G            HT/PER HT/PER
                          (F)     (DEG/KT/KT) (MB)    (FT/S) (FT/S)
PORT EVERGLADES            84      50/  4/  5 1017.7
VIRGINIA KEY               85 84  130/  4/  5   N/A
LAKE WORTH                 83 85   40/  3/  3 1017.8S
FOWEY ROCKS                84 85  100/  4/  6 1018.0S
SETTLEMENT POINT           83      90/  3/  3 1018.7R

$$



USA.gov is the U.S. government's official web portal to all federal, state and local government web resources and services.